Location: Beaurecueil
(43.5122°N, 5.5450°E)
Time: 01:27:24
(UTC+00:00)

ATLAS 3B R/B - Pass Details

Date: 18 September 2020
Orbit: 1016 x 1179 km, 63.8° (Epoch: 04 October)

Event Time Altitude Azimuth Distance (km) Brightness Sun altitude
Rises 19:31:41 0° 324° (NW) 3,810 6.6 -20.2°
Reaches altitude 10° 19:34:55 10° 339° (NNW) 2,877 5.5 -20.7°
Maximum altitude 19:40:13 23° 31° (NNE) 2,098 4.2 -21.6°
Enters shadow 19:42:49 19° 60° (ENE) 2,333 4.1 -22.0°
